Flag for Netherlands

Past Weather in Utrecht, Netherlands — Yesterday and Last 2 Weeks

Now
63 °F

Overcast.


Feels Like: 63 °F
Forecast: 63 / 51 °F
Wind: 9 mph from Southwest

Location: De Bilt

Current Time: Jul 5, 2020 at 11:16:23 pm

Latest Report: Jul 5, 2020 at 10:00 pm


Visibility: 10 mi

Pressure: 29.83 "Hg

Humidity: 70%

Dew Point: 53 °F

Location of UtrechtLocation

Past Weather in Utrecht — Graph

°F

Utrecht Temperature Yesterday

Maximum temperature yesterday: 64 °F (at 8:00 pm)
Minimum temperature yesterday: 57 °F (at 5:00 am)
Average temperature yesterday: 62 °F

High & Low Weather Summary for the Past Weeks

 TemperatureHumidityPressure
High86 °F (Jun 26, 6:00 pm)99% (Jun 23, 4:00 am)30.30 "Hg (Jun 23, 4:00 am)
Low50 °F (Jun 23, 4:00 am)33% (Jun 24, 2:00 pm)29.68 "Hg (Jul 1, 7:00 am)
Average66 °F70%29.95 "Hg
* Reported Jun 20 9:00 pm — Jul 5 9:00 pm, Utrecht. Weather by CustomWeather, © 2020

Note: Actual official high and low records may vary slightly from our data, if they occured in-between our weather recording intervals... More about our weather records

Utrecht Weather History for the Previous 24 Hours

Scroll right to see more
 ConditionsComfort  
Time TempWeatherWind HumidityBarometerVisibility
9:00 pm
Sun, Jul 5
64 °FOvercast.7 mph68%29.82 "Hg11 mi
8:00 pm66 °FOvercast.7 mph68%29.82 "Hg12 mi
7:00 pm68 °FOvercast.7 mph58%29.82 "Hg22 mi
6:00 pm68 °FPartly sunny.8 mph63%29.83 "Hg19 mi
5:00 pm68 °FOvercast.8 mph67%29.83 "Hg16 mi
4:00 pm69 °FPartly sunny.9 mph65%29.83 "Hg19 mi
3:00 pm68 °FOvercast.7 mph72%29.83 "Hg19 mi
2:00 pm68 °FOvercast.9 mph73%29.82 "Hg22 mi
1:00 pm66 °FOvercast.7 mph81%29.82 "Hg19 mi
12:00 pm64 °FRain showers. Overcast.7 mph88%29.82 "Hg7 mi
11:00 am63 °FDrizzle. Low clouds.8 mph94%29.82 "Hg2 mi
10:00 am63 °FDrizzle. Low clouds.7 mph93%29.81 "Hg3 mi
9:00 am63 °FLow clouds.9 mph89%29.80 "Hg4 mi
8:00 am63 °FLow clouds.8 mph87%29.79 "Hg8 mi
7:00 am63 °FOvercast.9 mph85%29.79 "Hg16 mi
6:00 am63 °FOvercast.8 mph85%29.79 "Hg25 mi
5:00 am63 °FOvercast.8 mph85%29.80 "Hg13 mi
4:00 am64 °FOvercast.8 mph88%29.81 "Hg7 mi
3:00 am63 °FLow clouds.6 mph90%29.82 "Hg11 mi
1:00 am64 °FDrizzle. Low clouds.7 mph96%29.84 "Hg4 mi
12:00 am64 °FDrizzle. Low clouds.7 mph97%29.84 "Hg2 mi
11:00 pm
Sat, Jul 4
64 °FDrizzle. Low clouds.6 mph97%29.85 "Hg2 mi
Weather by CustomWeather, © 2020

See weather overview